Tiempo atmosférico en la estación meteorológica de Valleseco, Las Palmas (900 m.)



Fecha
DESCASC
Temp. máxima en grados centígrados (hora)
DESCASC
Temp. mínima en grados centígrados (hora)
DESCASC
Temp. media en grados centígrados
DESCASC
Racha de viento máxima en m/sg (hora)
DESCASC
Velocidad máxima media en intervalos de 10 minutos(hora)
DESCASC
Precipitaciones diarias en mm
DESCASC
Precipitaciones de 00:00 a 06:00 en mm
DESCASC
Precipitaciones de 06:00 a 12:00 en mm
DESCASC
Precipitaciones de 12:00 a 18:00 en mm
DESCASC
Precipitaciones de 18:00 a 24:00 en mm
DESCASC
06-07-2020 35.5 (14:20) 21.8 (01:00) 28.6 7.5 (01:30) 5 (04:30) 0 0 0 0 0
05-07-2020 29.9 (12:50) 12.6 (05:10) 21.3 6.11 (12:10) 3.89 (09:10) 0 0 0 0 0
04-07-2020 21.1 (14:30) 13.2 (05:50) 17.2 5.83 (23:40) 3.61 (23:40) 0 0 0 0 0
03-07-2020 26.1 (15:30) 15 (23:59) 20.6 6.11 (05:40) 3.33 (06:10) 0 0 0 0 0
02-07-2020 24.1 (13:20) 14.6 (00:00) 19.4 5.28 (17:00) 3.06 (04:00) 0 0 0 0 0
01-07-2020 24.4 (15:50) 14.2 (00:00) 19.3 4.17 (13:20) 2.5 (16:10) 0.2 0 0.2 0 0
30-06-2020 21 (14:10) 13.9 (00:00) 17.4 5.28 (00:10) 2.5 (00:10) 0.4 0.4 0 0 0
29-06-2020 17.9 (14:20) 14.2 (00:00) 16 6.94 (13:30) 3.89 (13:30) 6.4 1.4 3.8 1 0.2
28-06-2020 19.3 (16:20) 13.9 (00:00) 16.6 5 (10:00) 2.78 (21:30) 1 0 0.2 0 0.8
27-06-2020 22.1 (16:00) 12.4 (00:00) 17.3 5.83 (18:20) 3.33 (15:00) 0 0 0 0 0
26-06-2020 18.8 (15:30) 13.3 (00:00) 16 6.67 (05:10) 2.5 (04:50) 0 0 0 0 0
25-06-2020 19.8 (15:30) 13.3 (00:00) 16.5 6.11 (02:00) 3.06 (02:00) 0.4 0.2 0.2 0 0
24-06-2020 18.7 (16:10) 13.6 (00:00) 16.2 7.22 (21:30) 4.17 (10:20) 0 0 0 0 0
23-06-2020 21.6 (16:00) 13.6 (00:00) 17.6 5.83 (16:10) 3.33 (15:50) 0 0 0 0 0
22-06-2020 24.4 (16:00) 12.5 (00:00) 18.4 4.72 (17:00) 2.78 (00:10) 0 0 0 0 0
21-06-2020 23.4 (16:00) 13.1 (00:00) 18.3 5.28 (10:30) 2.78 (10:30) 0 0 0 0 0
20-06-2020 21.7 (16:50) 13.6 (00:00) 17.7 6.39 (14:10) 3.33 (13:40) 1 0.2 0.8 0 0
19-06-2020 20.5 (16:00) 13.8 (00:00) 17.2 7.22 (07:00) 3.61 (03:50) 2.8 1.2 1.4 0.2 0
18-06-2020 22.3 (16:40) 13.4 (00:00) 17.8 8.61 (04:40) 5 (14:10) 0.6 0.2 0.4 0 0
17-06-2020 23.9 (13:00) 15.6 (00:00) 19.8 10.83 (01:30) 6.67 (04:10) 0.4 0.2 0.2 0 0
16-06-2020 29.7 (13:50) 18.6 (00:00) 24.2 15.28 (22:00) 8.89 (22:00) 0 0 0 0 0
15-06-2020 26.8 (13:50) 17.4 (00:00) 22.1 11.67 (14:20) 6.67 (01:30) 1 1 0 0 0
14-06-2020 24.2 (15:40) 11.7 (00:00) 18 9.72 (11:20) 6.67 (07:40) 0.2 0 0 0 0.2
13-06-2020 22.6 (15:00) 11.4 (00:00) 17 5.83 (12:10) 3.33 (07:20) 0 0 0 0 0
12-06-2020 20.3 (16:30) 12 (00:00) 16.1 6.94 (12:00) 3.89 (15:00) 0 0 0 0 0
11-06-2020 14.8 (13:20) 12.3 (00:00) 13.6 6.11 (21:10) 4.17 (21:10) 0.6 0.2 0.4 0 0
10-06-2020 18.2 (15:40) 12.6 (00:00) 15.4 5.83 (01:00) 3.06 (01:10) 0.6 0.6 0 0 0

Gráficas

Temp. máximas Temp. mínimas Temp. medias Precipitaciones Rachas de viento máximas Velocidades máximas media en intervalos de 10 minutos

Datos horarios

Fecha y hora oficial Temperatura (ºC) Velocidad del viento (km/h) Dirección del viento Racha (km/h) Dirección de racha Precipitación (mm) Presión (hPa) Tendencia (hPa) Humedad (%)
2020-07-09 23:00:00 17.1 7 Noroeste 22 Oeste 0 -- -- 69
2020-07-09 22:00:00 20 10 Noroeste 19 Noroeste 0 -- -- 32
2020-07-09 21:00:00 20.6 8 Noroeste 15 Oeste 0 -- -- 52
2020-07-09 20:00:00 23.1 6 Oeste 12 Norte 0 -- -- 56
2020-07-09 19:00:00 25.3 5 Noroeste 12 Noroeste 0 -- -- 56
2020-07-09 18:00:00 27 4 Noroeste 11 Noroeste 0 -- -- 39
2020-07-09 17:00:00 29.4 5 Noroeste 11 Noroeste 0 -- -- 34
2020-07-09 16:00:00 28.5 5 Norte 11 Norte 0 -- -- 45
2020-07-09 15:00:00 29.5 5 Norte 13 Norte 0 -- -- 35
2020-07-09 14:00:00 30.4 6 Norte 12 Este 0 -- -- 33
2020-07-09 13:00:00 31.1 8 Sudeste 17 Sudeste 0 -- -- 27
2020-07-09 12:00:00 31 7 Sudeste 14 Este 0 -- -- 20
2020-07-09 11:00:00 30.9 5 Sudeste 13 Este 0 -- -- 21
2020-07-09 10:00:00 31.3 3 Este 8 Norte 0 -- -- 11
2020-07-09 09:00:00 28.9 3 Nordeste 9 Sudeste 0 -- -- 11
2020-07-09 08:00:00 25.3 2 Oeste 8 Este 0 -- -- 9
2020-07-09 07:00:00 24 2 Nordeste 8 Sur 0 -- -- 8
2020-07-09 06:00:00 23.5 3 Este 8 Nordeste 0 -- -- 9
2020-07-09 05:00:00 24.3 3 Nordeste 8 Sur 0 -- -- 11
2020-07-09 04:00:00 24.6 4 Norte 13 Nordeste 0 -- -- 13
2020-07-09 03:00:00 24.1 5 Nordeste 12 Norte 0 -- -- 15
2020-07-09 02:00:00 24.5 8 Este 10 Este 0 -- -- 11
2020-07-09 01:00:00 24.9 5 Nordeste 8 Sudeste 0 -- -- 15
2020-07-09 00:00:00 25.2 3 Nordeste 8 Nordeste 0 -- -- 17
2020-07-08 23:00:00 24 8 Este 14 Este 0 -- -- 24
2020-07-08 22:00:00 24.2 7 Este 13 Este 0 -- -- 21
2020-07-08 21:00:00 24.7 10 Este 14 Este 0 -- -- 24
2020-07-08 20:00:00 26.2 7 Sudeste 13 Sudeste 0 -- -- 31
2020-07-08 19:00:00 27.2 10 Sudeste 16 Sudeste 0 -- -- 30
2020-07-08 18:00:00 29.3 12 Sudeste 18 Este 0 -- -- 29
2020-07-08 17:00:00 32.1 5 Norte 17 Noroeste 0 -- -- 17
2020-07-08 16:00:00 31.2 9 Norte 19 Noroeste 0 -- -- 26
2020-07-08 15:00:00 33.1 10 Sudeste 18 Sudeste 0 -- -- 34
2020-07-08 14:00:00 33.9 9 Sudeste 18 Este 0 -- -- 30
2020-07-08 13:00:00 36.5 9 Sudeste 15 Sudeste 0 -- -- 13
2020-07-08 12:00:00 36.3 8 Sudeste 22 Sudeste 0 -- -- 15
2020-07-08 11:00:00 35.6 11 Este 18 Sudeste 0 -- -- 16
2020-07-08 10:00:00 34.6 8 Este 24 Sudeste 0 -- -- 13
2020-07-08 09:00:00 32 8 Sudeste 21 Sudeste 0 -- -- 16
2020-07-08 08:00:00 29.5 8 Este 24 Sudeste 0 -- -- 16
2020-07-08 07:00:00 28.9 9 Sudeste 17 Este 0 -- -- 16
2020-07-08 06:00:00 28 9 Sudeste 22 Sudeste 0 -- -- 16
2020-07-08 05:00:00 28 10 Sudeste 21 Este 0 -- -- 15
2020-07-08 04:00:00 28.5 9 Este 27 Sudeste 0 -- -- 20
2020-07-08 03:00:00 27.2 9 Sudeste 17 Nordeste 0 -- -- 23
2020-07-08 02:00:00 28 5 Sudeste 15 Nordeste 0 -- -- 22
2020-07-08 01:00:00 28.2 3 Noroeste 10 Noroeste 0 -- -- 22
2020-07-08 00:00:00 28.5 6 Norte 14 Noroeste 0 -- -- 22
2020-07-07 23:00:00 28.4 7 Noroeste 13 Oeste 0 -- -- 22
2020-07-07 22:00:00 28 8 Noroeste 17 Oeste 0 -- -- 23
2020-07-07 21:00:00 27.4 11 Oeste 14 Noroeste 0 -- -- 27
2020-07-07 20:00:00 28.9 9 Noroeste 12 Oeste 0 -- -- 30
2020-07-07 19:00:00 29.1 5 Noroeste 8 Noroeste 0 -- -- 40
2020-07-07 18:00:00 32.3 4 Noroeste 8 Norte 0 -- -- 35
2020-07-07 17:00:00 33.6 4 Norte 7 Noroeste 0 -- -- 38
2020-07-07 16:00:00 37.2 4 Norte 7 Norte 0 -- -- 16
2020-07-07 15:00:00 35.7 5 Norte 13 Norte 0 -- -- 33
2020-07-07 14:00:00 39.2 9 Norte 14 Noroeste 0 -- -- 17
2020-07-07 13:00:00 39 7 Norte 11 Norte 0 -- -- 15
2020-07-07 12:00:00 38.8 6 Norte 10 Norte 0 -- -- 16
2020-07-07 11:00:00 38 6 Este 13 Sudeste 0 -- -- 14
2020-07-07 10:00:00 35.4 6 Sudeste 10 Sudeste 0 -- -- 19
2020-07-07 09:00:00 33.4 3 Sudeste 8 Este 0 -- -- 19
2020-07-07 08:00:00 31 0 Calma 5 Sur 0 -- -- 18
2020-07-07 07:00:00 29.8 2 Sudoeste 6 Oeste 0 -- -- 19
2020-07-07 06:00:00 30.7 4 Oeste 8 Sudoeste 0 -- -- 19
2020-07-07 05:00:00 30 5 Sudoeste 8 Sudoeste 0 -- -- 21
2020-07-07 04:00:00 28.4 6 Noroeste 12 Oeste 0 -- -- 24
2020-07-07 03:00:00 28.6 5 Noroeste 9 Noroeste 0 -- -- 24
2020-07-07 02:00:00 29.3 6 Oeste 13 Oeste 0 -- -- 22
2020-07-07 01:00:00 26.1 8 Noroeste 12 Noroeste 0 -- -- 27
2020-07-07 00:00:00 25.2 11 Oeste 13 Oeste 0 -- -- 29
2020-07-06 23:00:00 24.4 10 Noroeste 13 Noroeste 0 -- -- 31
2020-07-06 22:00:00 23.5 10 Noroeste 13 Noroeste 0 -- -- 39
2020-07-06 21:00:00 24.2 9 Noroeste 12 Noroeste 0 -- -- 40
2020-07-06 20:00:00 27.5 6 Noroeste 12 Oeste 0 -- -- 42
2020-07-06 19:00:00 28.2 5 Noroeste 8 Noroeste 0 -- -- 45
2020-07-06 18:00:00 33.9 3 Noroeste 6 Noroeste 0 -- -- 28
2020-07-06 17:00:00 31.2 4 Norte 11 Norte 0 -- -- 46
2020-07-06 16:00:00 34.5 5 Norte 11 Noroeste 0 -- -- 34
2020-07-06 15:00:00 35.3 5 Noroeste 19 Nordeste 0 -- -- 31
2020-07-06 14:00:00 33.8 8 Sudeste 21 Este 0 -- -- 35
2020-07-06 13:00:00 32.5 11 Sudeste 23 Este 0 -- -- 32
2020-07-06 12:00:00 32.5 11 Este 24 Sudeste 0 -- -- 28
2020-07-06 11:00:00 32.4 13 Sudeste 21 Este 0 -- -- 24
2020-07-06 10:00:00 31.8 8 Este 22 Este 0 -- -- 18
2020-07-06 09:00:00 28.1 14 Sudeste 22 Sudeste 0 -- -- 20
2020-07-06 08:00:00 25.9 13 Este 22 Este 0 -- -- 15
2020-07-06 07:00:00 25.6 14 Sudeste 21 Sudeste 0 -- -- 15
2020-07-06 06:00:00 24.9 14 Sudeste 20 Sudeste 0 -- -- 15
2020-07-06 05:00:00 25 15 Sudeste 24 Sudeste 0 -- -- 12
2020-07-06 04:00:00 25.4 16 Este 25 Este 0 -- -- 9
2020-07-06 03:00:00 23.7 12 Sudeste 22 Sudeste 0 -- -- 11
2020-07-06 02:00:00 21.9 11 Sudeste 27 Sudeste 0 -- -- 16
2020-07-06 01:00:00 21.8 8 Sudeste 22 Este 0 -- -- 22
2020-07-06 00:00:00 22.5 3 Este 14 Nordeste 0 -- -- 23
2020-07-05 23:00:00 22.3 4 Nordeste 15 Nordeste 0 -- -- 27
2020-07-05 22:00:00 21.2 4 Oeste 13 Oeste 0 -- -- 36
2020-07-05 21:00:00 20.5 7 Oeste 14 Noroeste 0 -- -- 49
2020-07-05 20:00:00 23.5 7 Noroeste 11 Oeste 0 -- -- 38
2020-07-05 19:00:00 24.6 5 Noroeste 11 Norte 0 -- -- 43
2020-07-05 18:00:00 27.2 4 Norte 10 Norte 0 -- -- 43
2020-07-05 17:00:00 27.3 6 Noroeste 10 Noroeste 0 -- -- 52
2020-07-05 16:00:00 26.9 5 Norte 10 Norte 0 -- -- 54
2020-07-05 15:00:00 25 3 Norte 17 Este 0 -- -- 59
2020-07-05 14:00:00 25 7 Oeste 17 Sudeste 0 -- -- 56
2020-07-05 13:00:00 29.8 10 Este 22 Este 0 -- -- 32
2020-07-05 12:00:00 28 8 Este 16 Sudeste 0 -- -- 30
2020-07-05 11:00:00 25.5 12 Este 18 Este 0 -- -- 32
2020-07-05 10:00:00 26.3 7 Sudeste 18 Este 0 -- -- 25
2020-07-05 09:00:00 22.9 14 Sudeste 19 Sudeste 0 -- -- 30
2020-07-05 08:00:00 19.6 12 Sudeste 18 Este 0 -- -- 39
2020-07-05 07:00:00 18.3 5 Sudeste 10 Este 0 -- -- 40
2020-07-05 06:00:00 13.3 4 Norte 9 Norte 0 -- -- 100
2020-07-05 05:00:00 13.2 3 Norte 9 Norte 0 -- -- 100
2020-07-05 04:00:00 13.5 6 Noroeste 17 Oeste 0 -- -- 100
2020-07-05 03:00:00 14 7 Noroeste 20 Sudoeste 0 -- -- 99
2020-07-05 02:00:00 14 9 Oeste 18 Noroeste 0 -- -- 99
2020-07-05 01:00:00 14.3 10 Noroeste 18 Oeste 0 -- -- 99
2020-07-05 00:00:00 14.1 13 Oeste 21 Oeste 0 -- -- 98
2020-07-04 23:00:00 13.7 6 Noroeste 10 Noroeste 0 -- -- 97
2020-07-04 22:00:00 14.1 5 Oeste 8 Oeste 0 -- -- 97
2020-07-04 21:00:00 15 4 Noroeste 10 Noroeste 0 -- -- 94
2020-07-04 20:00:00 16.3 7 Norte 12 Norte 0 -- -- 88
2020-07-04 19:00:00 17.4 8 Norte 15 Norte 0 -- -- 83
2020-07-04 18:00:00 18.5 10 Norte 17 Noroeste 0 -- -- 79
2020-07-04 17:00:00 18.5 9 Norte 18 Noroeste 0 -- -- 79
2020-07-04 16:00:00 20.9 10 Norte 20 Norte 0 -- -- 70
2020-07-04 15:00:00 20.5 8 Norte 17 Norte 0 -- -- 70
2020-07-04 14:00:00 20.5 10 Norte 19 Noroeste 0 -- -- 72
2020-07-04 13:00:00 20.1 9 Norte 15 Noroeste 0 -- -- 73
2020-07-04 12:00:00 17.5 5 Norte 12 Norte 0 -- -- 84
2020-07-04 11:00:00 15.9 3 Nordeste 17 Norte 0 -- -- 94
2020-07-04 10:00:00 15.2 4 Norte 12 Noroeste 0 -- -- 96
2020-07-04 09:00:00 14.5 5 Noroeste 19 Noroeste 0 -- -- 97
2020-07-04 08:00:00 14 3 Norte 11 Norte 0 -- -- 96
2020-07-04 07:00:00 13.8 4 Norte 14 Noroeste 0 -- -- 95
2020-07-04 06:00:00 13.5 6 Nordeste 14 Nordeste 0 -- -- 97
2020-07-04 05:00:00 13.4 4 Nordeste 9 Norte 0 -- -- 97
2020-07-04 04:00:00 13.6 3 Norte 15 Este 0 -- -- 96
2020-07-04 03:00:00 14.1 9 Nordeste 19 Este 0 -- -- 95
2020-07-04 02:00:00 13.8 3 Nordeste 9 Oeste 0 -- -- 93
2020-07-04 01:00:00 14.7 5 Sudeste 16 Norte 0 -- -- 91
2020-07-04 00:00:00 15 5 Norte 9 Norte 0 -- -- 82
2020-07-03 23:00:00 16.5 4 Nordeste 9 Norte 0 -- -- 66
2020-07-03 22:00:00 18.8 3 Norte 13 Noroeste 0 -- -- 42
2020-07-03 21:00:00 19.6 3 Sudeste 9 Este 0 -- -- 37
2020-07-03 20:00:00 21.3 2 Oeste 6 Norte 0 -- -- 68
2020-07-03 19:00:00 23.3 3 Norte 9 Sudeste 0 -- -- 61
2020-07-03 18:00:00 23.6 4 Norte 10 Sudeste 0 -- -- 61
2020-07-03 17:00:00 24.4 5 Sudeste 14 Este 0 -- -- 47
2020-07-03 16:00:00 24.5 5 Sudeste 13 Este 0 -- -- 53
2020-07-03 15:00:00 26 4 Nordeste 13 Este 0 -- -- 43
2020-07-03 14:00:00 24.8 6 Sudeste 15 Sudeste 0 -- -- 51
2020-07-03 13:00:00 23.8 3 Noroeste 14 Noroeste 0 -- -- 61
2020-07-03 12:00:00 22.1 5 Noroeste 10 Oeste 0 -- -- 69
2020-07-03 11:00:00 21.4 3 Noroeste 9 Noroeste 0 -- -- 70
2020-07-03 10:00:00 21.1 6 Este 11 Sudeste 0 -- -- 70
2020-07-03 09:00:00 19.1 3 Este 8 Sudeste 0 -- -- 77
2020-07-03 08:00:00 15.1 8 Sudeste 14 Sudeste 0 -- -- 88
2020-07-03 07:00:00 19.4 9 Sudeste 18 Sudeste 0 -- -- 29
2020-07-03 06:00:00 19.7 9 Sudeste 22 Sudeste 0 -- -- 27
2020-07-03 05:00:00 19.4 5 Sudeste 12 Nordeste 0 -- -- 28
2020-07-03 04:00:00 19.8 6 Sudeste 21 Este 0 -- -- 23
2020-07-03 03:00:00 18 5 Este 11 Sudeste 0 -- -- 45
2020-07-03 02:00:00 20.1 2 Sur 10 Sudeste 0 -- -- 28
2020-07-03 01:00:00 19.6 3 Nordeste 17 Norte 0 -- -- 49
2020-07-03 00:00:00 18.3 5 Sudeste 17 Nordeste 0 -- -- 42
2020-07-02 23:00:00 15 6 Este 12 Este 0 -- -- 84
2020-07-02 22:00:00 15.5 6 Sudeste 12 Sudeste 0 -- -- 67
2020-07-02 21:00:00 15.4 4 Noroeste 13 Norte 0 -- -- 94
2020-07-02 20:00:00 16.3 4 Norte 13 Noroeste 0 -- -- 92
2020-07-02 19:00:00 17.3 8 Noroeste 16 Noroeste 0 -- -- 88
2020-07-02 18:00:00 18.9 8 Norte 17 Norte 0 -- -- 82
2020-07-02 17:00:00 19.6 10 Noroeste 19 Sudoeste 0 -- -- 81
2020-07-02 16:00:00 21.9 5 Noroeste 15 Oeste 0 -- -- 71
2020-07-02 15:00:00 21.6 6 Noroeste 12 Noroeste 0 -- -- 70
2020-07-02 14:00:00 22.8 7 Noroeste 13 Este 0 -- -- 70
2020-07-02 13:00:00 22.6 6 Este 18 Este 0 -- -- 69
2020-07-02 12:00:00 21.3 4 Norte 12 Oeste 0 -- -- 74
2020-07-02 11:00:00 19.2 4 Norte 10 Noroeste 0 -- -- 84
2020-07-02 10:00:00 16.9 3 Este 10 Nordeste 0 -- -- 95
2020-07-02 09:00:00 15.3 3 Noroeste 14 Noroeste 0 -- -- 97
2020-07-02 08:00:00 14.9 6 Norte 12 Sudeste 0 -- -- 95
2020-07-02 07:00:00 18.3 6 Sur 12 Sur 0 -- -- 38
2020-07-02 06:00:00 16.1 4 Sur 12 Sudeste 0 -- -- 71
2020-07-02 05:00:00 18 4 Este 13 Este 0 -- -- 32
2020-07-02 04:00:00 16 11 Sudeste 14 Este 0 -- -- 54
2020-07-02 03:00:00 18.1 6 Este 9 Sudeste 0 -- -- 35
2020-07-02 02:00:00 21 0 Calma 5 Oeste 0 -- -- 27
2020-07-02 01:00:00 19.4 4 Oeste 8 Norte 0 -- -- 41
2020-07-02 00:00:00 23.4 3 Noroeste 9 Norte 0 -- -- 32
2020-07-01 23:00:00 17.9 3 Noroeste 8 Norte 0 -- -- 50
2020-07-01 22:00:00 18 5 Oeste 9 Noroeste 0 -- -- 79
2020-07-01 21:00:00 16.2 4 Noroeste 11 Sudoeste 0 -- -- 93
2020-07-01 20:00:00 17.8 3 Oeste 8 Oeste 0 -- -- 88
2020-07-01 19:00:00 21.1 4 Sudoeste 10 Oeste 0 -- -- 76
2020-07-01 18:00:00 23.2 3 Este 10 Noroeste 0 -- -- 68
2020-07-01 17:00:00 21.9 5 Noroeste 14 Norte 0 -- -- 73
2020-07-01 16:00:00 23.3 7 Noroeste 14 Sudeste 0 -- -- 69
2020-07-01 15:00:00 23.8 7 Noroeste 12 Noroeste 0 -- -- 66
2020-07-01 14:00:00 21.8 6 Noroeste 15 Norte 0 -- -- 75
2020-07-01 13:00:00 20.4 6 Norte 12 Oeste 0 -- -- 81
2020-07-01 12:00:00 18.8 5 Noroeste 9 Noroeste 0 -- -- 95
2020-07-01 11:00:00 17 5 Noroeste 9 Noroeste 0 -- -- 98
2020-07-01 10:00:00 16.1 4 Noroeste 9 Norte 0 -- -- 100
2020-07-01 09:00:00 14.9 3 Norte 8 Este 0 -- -- 100
2020-07-01 08:00:00 14.7 2 Este 9 Oeste 0.2 -- -- 100
2020-07-01 07:00:00 14.8 3 Norte 8 Noroeste 0 -- -- 100
2020-07-01 06:00:00 14.6 4 Noroeste 10 Noroeste 0 -- -- 100
2020-07-01 05:00:00 14.5 4 Noroeste 10 Noroeste 0 -- -- 100
2020-07-01 04:00:00 14.4 7 Noroeste 11 Noroeste 0 -- -- 100
2020-07-01 03:00:00 14.3 6 Noroeste 11 Noroeste 0 -- -- 100
2020-07-01 02:00:00 14.6 2 Noroeste 10 Norte 0 -- -- 99
2020-07-01 01:00:00 14.7 5 Norte 10 Norte 0 -- -- 99
2020-07-01 00:00:00 14.7 5 Norte 9 Noroeste 0 -- -- 98
2020-06-30 23:00:00 14.5 4 Noroeste 9 Norte 0 -- -- 98
2020-06-30 22:00:00 14.3 5 Nordeste 11 Oeste 0 -- -- 97
2020-06-30 21:00:00 15.1 4 Norte 11 Este 0 -- -- 95
2020-06-30 20:00:00 16.5 5 Norte 10 Norte 0 -- -- 90
2020-06-30 19:00:00 19.5 3 Sur 14 Este 0 -- -- 80
2020-06-30 18:00:00 19.8 6 Sudeste 12 Nordeste 0 -- -- 77
2020-06-30 17:00:00 20.8 6 Norte 15 Norte 0 -- -- 77
2020-06-30 16:00:00 20.5 7 Norte 15 Norte 0 -- -- 76
2020-06-30 15:00:00 20.6 9 Norte 15 Norte 0 -- -- 77
2020-06-30 14:00:00 20.8 7 Norte 16 Norte 0 -- -- 76
2020-06-30 13:00:00 18.9 5 Norte 12 Norte 0 -- -- 86
2020-06-30 12:00:00 17.4 4 Norte 10 Norte 0 -- -- 94
2020-06-30 11:00:00 16.4 4 Norte 12 Norte 0 -- -- 98
2020-06-30 10:00:00 15.3 4 Norte 13 Norte 0 -- -- 100
2020-06-30 09:00:00 14.8 3 Norte 13 Nordeste 0 -- -- 100
2020-06-30 08:00:00 14.1 3 Nordeste 14 Norte 0 -- -- 100
2020-06-30 07:00:00 14 5 Noroeste 14 Norte 0 -- -- 100
2020-06-30 06:00:00 14.3 6 Norte 14 Norte 0.2 -- -- 100
2020-06-30 05:00:00 14.1 6 Norte 14 Norte 0 -- -- 100
2020-06-30 04:00:00 14.4 4 Norte 11 Sudoeste 0 -- -- 100
2020-06-30 03:00:00 14.4 5 Noroeste 13 Norte 0.2 -- -- 100
2020-06-30 02:00:00 14.5 8 Norte 15 Norte 0 -- -- 100
2020-06-30 01:00:00 14.4 6 Oeste 19 Norte 0 -- -- 100
2020-06-30 00:00:00 14.6 6 Noroeste 13 Norte 0.2 -- -- 100
2020-06-29 23:00:00 14.4 4 Norte 15 Norte 0 -- -- 99
2020-06-29 22:00:00 14.8 5 Norte 16 Noroeste 0 -- -- 99
2020-06-29 21:00:00 14.7 11 Noroeste 19 Noroeste 0 -- -- 99
2020-06-29 20:00:00 15.3 6 Noroeste 12 Noroeste 0 -- -- 98
2020-06-29 19:00:00 15.7 9 Norte 19 Norte 0 -- -- 98
2020-06-29 18:00:00 16.2 8 Norte 21 Norte 0.4 -- -- 97
2020-06-29 17:00:00 17.1 5 Noroeste 17 Norte 0 -- -- 95
2020-06-29 16:00:00 17.2 5 Norte 19 Norte 0 -- -- 95
2020-06-29 15:00:00 16.2 10 Norte 23 Norte 0.2 -- -- 96
2020-06-29 14:00:00 17.4 6 Norte 25 Nordeste 0.2 -- -- 97
2020-06-29 13:00:00 17.3 4 Norte 23 Norte 0.2 -- -- 96
2020-06-29 12:00:00 16.3 8 Norte 24 Norte 0.6 -- -- 100
2020-06-29 11:00:00 16.3 6 Norte 23 Norte 0.6 -- -- 99
2020-06-29 10:00:00 15.5 4 Sudoeste 21 Norte 0.4 -- -- 99
2020-06-29 09:00:00 14.8 7 Norte 22 Norte 0.6 -- -- 100
2020-06-29 08:00:00 14.6 11 Norte 21 Norte 0.8 -- -- 100
2020-06-29 07:00:00 14.2 4 Oeste 20 Norte 0.8 -- -- 100
2020-06-29 06:00:00 14.5 7 Noroeste 20 Norte 0.2 -- -- 100
2020-06-29 05:00:00 14.7 8 Noroeste 18 Noroeste 0.6 -- -- 100
2020-06-29 04:00:00 14.5 4 Noroeste 16 Norte 0 -- -- 99
2020-06-29 03:00:00 14.6 8 Norte 22 Norte 0.2 -- -- 99
2020-06-29 02:00:00 14.7 4 Noroeste 21 Norte 0.2 -- -- 99
2020-06-29 01:00:00 14.8 4 Norte 19 Norte 0.2 -- -- 99
2020-06-29 00:00:00 15.1 5 Noroeste 15 Norte 0.4 -- -- 99
2020-06-28 23:00:00 15.1 10 Norte 18 Noroeste 0.4 -- -- 98
2020-06-28 22:00:00 14.9 4 Oeste 18 Norte 0 -- -- 96
2020-06-28 21:00:00 15.4 3 Noroeste 15 Norte 0 -- -- 94
2020-06-28 20:00:00 16.1 3 Norte 15 Norte 0 -- -- 89
2020-06-28 19:00:00 16.9 7 Norte 17 Norte 0 -- -- 85
2020-06-28 18:00:00 17.4 7 Norte 18 Norte 0 -- -- 86
2020-06-28 17:00:00 19.1 8 Norte 18 Noroeste 0 -- -- 77
2020-06-28 16:00:00 18.7 8 Norte 14 Norte 0 -- -- 82
2020-06-28 15:00:00 17.5 9 Norte 17 Norte 0 -- -- 90
2020-06-28 14:00:00 17.8 6 Norte 15 Norte 0 -- -- 84
2020-06-28 13:00:00 18.1 6 Norte 16 Norte 0 -- -- 88
2020-06-28 12:00:00 17.3 6 Norte 15 Noroeste 0 -- -- 91
2020-06-28 11:00:00 16.4 3 Noroeste 12 Norte 0.2 -- -- 94
2020-06-28 10:00:00 15.3 7 Noroeste 18 Noroeste 0 -- -- 92
2020-06-28 09:00:00 15 4 Nordeste 11 Nordeste 0 -- -- 95
2020-06-28 08:00:00 14.4 4 Norte 9 Norte 0 -- -- 97
2020-06-28 07:00:00 13.9 4 Oeste 10 Nordeste 0 -- -- 96
2020-06-28 06:00:00 14.2 3 Noroeste 13 Norte 0 -- -- 95
2020-06-28 05:00:00 14.3 4 Norte 13 Nordeste 0 -- -- 95
2020-06-28 04:00:00 14.1 2 Este 11 Este 0 -- -- 93
2020-06-28 03:00:00 13.9 5 Sur 12 Nordeste 0 -- -- 93
2020-06-28 02:00:00 14.2 5 Este 14 Nordeste 0 -- -- 94
2020-06-28 01:00:00 14.1 6 Este 14 Sudeste 0 -- -- 95
2020-06-28 00:00:00 14.6 3 Norte 14 Nordeste 0 -- -- 95
2020-06-27 23:00:00 14.3 2 Nordeste 11 Norte 0 -- -- 91
2020-06-27 22:00:00 14.6 4 Sudeste 14 Norte 0 -- -- 90
2020-06-27 21:00:00 15.2 3 Sudeste 12 Sudeste 0 -- -- 88
2020-06-27 20:00:00 16.3 6 Norte 18 Norte 0 -- -- 82
2020-06-27 19:00:00 19.9 8 Norte 21 Norte 0 -- -- 68
2020-06-27 18:00:00 21.7 8 Norte 15 Norte 0 -- -- 61
2020-06-27 17:00:00 20.4 9 Norte 17 Noroeste 0 -- -- 64
2020-06-27 16:00:00 22.1 7 Norte 18 Norte 0 -- -- 59
2020-06-27 15:00:00 20.5 12 Norte 19 Norte 0 -- -- 64
2020-06-27 14:00:00 20.5 9 Norte 19 Norte 0 -- -- 65
2020-06-27 13:00:00 19.5 5 Norte 14 Norte 0 -- -- 71
2020-06-27 12:00:00 18.3 8 Norte 15 Norte 0 -- -- 74
2020-06-27 11:00:00 15.8 6 Norte 14 Nordeste 0 -- -- 84
2020-06-27 10:00:00 14.2 5 Norte 15 Norte 0 -- -- 92
2020-06-27 09:00:00 13.2 5 Nordeste 14 Este 0 -- -- 98
2020-06-27 08:00:00 12.8 3 Sur 8 Oeste 0 -- -- 98
2020-06-27 07:00:00 12.5 4 Norte 14 Noroeste 0 -- -- 99
2020-06-27 06:00:00 12.8 5 Noroeste 13 Norte 0 -- -- 98
2020-06-27 05:00:00 13.3 4 Norte 13 Norte 0 -- -- 98
2020-06-27 04:00:00 13.2 6 Norte 14 Nordeste 0 -- -- 98
2020-06-27 03:00:00 13.5 3 Norte 11 Nordeste 0 -- -- 97
2020-06-27 02:00:00 13.8 2 Norte 6 Norte 0 -- -- 97
2020-06-27 01:00:00 13.7 3 Norte 8 Sudeste 0 -- -- 96
2020-06-27 00:00:00 13.8 2 Sudoeste 10 Norte 0 -- -- 96
2020-06-26 23:00:00 14.2 3 Nordeste 12 Este 0 -- -- 96
2020-06-26 22:00:00 14.1 4 Norte 15 Norte 0 -- -- 92
2020-06-26 21:00:00 15 5 Norte 13 Norte 0 -- -- 91
2020-06-26 20:00:00 15.8 5 Norte 15 Norte 0 -- -- 87
2020-06-26 19:00:00 17.1 5 Norte 15 Norte 0 -- -- 78
2020-06-26 18:00:00 17 7 Norte 18 Noroeste 0 -- -- 84
2020-06-26 17:00:00 17.5 6 Norte 16 Norte 0 -- -- 81
2020-06-26 16:00:00 18 6 Norte 17 Noroeste 0 -- -- 77
2020-06-26 15:00:00 18.1 7 Norte 16 Norte 0 -- -- 79
2020-06-26 14:00:00 17.5 7 Nordeste 16 Nordeste 0 -- -- 81
2020-06-26 13:00:00 16.8 6 Norte 16 Norte 0 -- -- 87
2020-06-26 12:00:00 17.7 7 Norte 18 Norte 0 -- -- 73
2020-06-26 11:00:00 16 8 Norte 17 Norte 0 -- -- 87
2020-06-26 10:00:00 14.8 5 Sudoeste 14 Norte 0 -- -- 91
2020-06-26 09:00:00 13.8 3 Nordeste 12 Nordeste 0 -- -- 94
2020-06-26 08:00:00 13.3 4 Nordeste 13 Norte 0 -- -- 97
2020-06-26 07:00:00 13.7 8 Norte 15 Norte 0 -- -- 97
2020-06-26 06:00:00 13.9 3 Norte 24 Noroeste 0 -- -- 97
2020-06-26 05:00:00 13.9 9 Norte 20 Norte 0 -- -- 96
2020-06-26 04:00:00 14 4 Oeste 14 Norte 0 -- -- 92
2020-06-26 03:00:00 13.8 4 Sur 10 Nordeste 0 -- -- 93
2020-06-26 02:00:00 13.7 6 Nordeste 17 Este 0 -- -- 96
2020-06-26 01:00:00 14.3 5 Este 14 Este 0 -- -- 94
2020-06-26 00:00:00 14.2 7 Nordeste 12 Nordeste 0 -- -- 93
2020-06-25 23:00:00 14.5 4 Nordeste 10 Este 0 -- -- 93
2020-06-25 22:00:00 14.4 6 Nordeste 13 Norte 0 -- -- 93
2020-06-25 21:00:00 14.9 4 Noroeste 18 Norte 0 -- -- 91
2020-06-25 20:00:00 15.3 6 Noroeste 20 Norte 0 -- -- 89
2020-06-25 19:00:00 16 8 Noroeste 19 Noroeste 0 -- -- 85
2020-06-25 18:00:00 16.7 8 Norte 19 Norte 0 -- -- 81
2020-06-25 17:00:00 17.2 8 Norte 17 Norte 0 -- -- 81
2020-06-25 16:00:00 18.3 8 Norte 22 Norte 0 -- -- 79
2020-06-25 15:00:00 19.4 9 Noroeste 17 Noroeste 0 -- -- 72
2020-06-25 14:00:00 17.5 9 Norte 21 Norte 0 -- -- 81
2020-06-25 13:00:00 17.4 7 Norte 16 Norte 0 -- -- 84
2020-06-25 12:00:00 16.1 7 Norte 21 Norte 0 -- -- 90
2020-06-25 11:00:00 15 5 Norte 13 Noroeste 0.2 -- -- 96
2020-06-25 10:00:00 14.3 5 Noroeste 15 Norte 0 -- -- 98
2020-06-25 09:00:00 13.8 4 Noroeste 13 Noroeste 0 -- -- 98
2020-06-25 08:00:00 13.7 7 Norte 17 Norte 0 -- -- 99
2020-06-25 07:00:00 13.3 5 Oeste 12 Norte 0 -- -- 98
2020-06-25 06:00:00 13.4 6 Noroeste 18 Norte 0 -- -- 98
2020-06-25 05:00:00 13.9 9 Norte 18 Norte 0.2 -- -- 97
2020-06-25 04:00:00 13.9 5 Noroeste 14 Noroeste 0 -- -- 97
2020-06-25 03:00:00 13.6 5 Oeste 21 Norte 0 -- -- 96
2020-06-25 02:00:00 14.1 11 Norte 22 Noroeste 0 -- -- 97
2020-06-25 01:00:00 14.5 8 Norte 18 Norte 0 -- -- 95
2020-06-25 00:00:00 14.2 8 Noroeste 19 Noroeste 0 -- -- 95
2020-06-24 23:00:00 14.2 13 Noroeste 25 Norte 0 -- -- 95
2020-06-24 22:00:00 14.4 12 Noroeste 26 Norte 0 -- -- 94
2020-06-24 21:00:00 14.8 8 Noroeste 17 Norte 0 -- -- 93
2020-06-24 20:00:00 15.5 10 Norte 17 Oeste 0 -- -- 90
2020-06-24 19:00:00 16.9 8 Norte 15 Noroeste 0 -- -- 82
2020-06-24 18:00:00 17 6 Norte 18 Norte 0 -- -- 84
2020-06-24 17:00:00 17.7 7 Norte 20 Noroeste 0 -- -- 79
2020-06-24 16:00:00 18.2 13 Norte 22 Noroeste 0 -- -- 76
2020-06-24 15:00:00 16.1 12 Norte 22 Norte 0 -- -- 93
2020-06-24 14:00:00 17.2 6 Noroeste 21 Norte 0 -- -- 86
2020-06-24 13:00:00 16.7 6 Noroeste 17 Norte 0 -- -- 89
2020-06-24 12:00:00 16 7 Noroeste 17 Noroeste 0 -- -- 91
2020-06-24 11:00:00 14.8 12 Noroeste 25 Noroeste 0 -- -- 96
2020-06-24 10:00:00 14.4 9 Noroeste 21 Oeste 0 -- -- 98
2020-06-24 09:00:00 14.1 10 Oeste 15 Oeste 0 -- -- 98
2020-06-24 08:00:00 13.7 8 Noroeste 17 Noroeste 0 -- -- 98
2020-06-24 07:00:00 13.7 10 Oeste 16 Oeste 0 -- -- 98
2020-06-24 06:00:00 13.8 9 Oeste 19 Oeste 0 -- -- 97
2020-06-24 05:00:00 13.6 10 Oeste 18 Noroeste 0 -- -- 97
2020-06-24 04:00:00 14 8 Noroeste 17 Noroeste 0 -- -- 97
2020-06-24 03:00:00 14.1 5 Oeste 12 Norte 0 -- -- 95
2020-06-24 02:00:00 14.2 4 Noroeste 10 Norte 0 -- -- 94
2020-06-24 01:00:00 14.3 6 Noroeste 10 Norte 0 -- -- 93
2020-06-24 00:00:00 14.5 5 Oeste 10 Sudoeste 0 -- -- 93
2020-06-23 23:00:00 14.6 5 Norte 10 Norte 0 -- -- 92
2020-06-23 22:00:00 14.9 4 Noroeste 14 Oeste 0 -- -- 92
2020-06-23 21:00:00 15.1 3 Norte 12 Norte 0 -- -- 90
2020-06-23 20:00:00 15.9 6 Norte 17 Norte 0 -- -- 87
2020-06-23 19:00:00 19.2 7 Norte 19 Norte 0 -- -- 75
2020-06-23 18:00:00 19 10 Norte 18 Norte 0 -- -- 73
2020-06-23 17:00:00 19.8 8 Noroeste 21 Noroeste 0 -- -- 73
2020-06-23 16:00:00 21.6 12 Noroeste 19 Norte 0 -- -- 67
2020-06-23 15:00:00 19.3 9 Noroeste 19 Noroeste 0 -- -- 79
2020-06-23 14:00:00 20.1 10 Noroeste 20 Oeste 0 -- -- 74
2020-06-23 13:00:00 18.7 9 Noroeste 18 Norte 0 -- -- 79
2020-06-23 12:00:00 18.5 8 Noroeste 19 Noroeste 0 -- -- 78
2020-06-23 11:00:00 17.3 9 Noroeste 15 Noroeste 0 -- -- 84
2020-06-23 10:00:00 17 7 Noroeste 14 Noroeste 0 -- -- 81
2020-06-23 09:00:00 14.9 6 Noroeste 13 Noroeste 0 -- -- 94
2020-06-23 08:00:00 13.9 4 Noroeste 11 Oeste 0 -- -- 97
2020-06-23 07:00:00 13.7 5 Noroeste 10 Noroeste 0 -- -- 96
2020-06-23 06:00:00 13.9 3 Norte 10 Norte 0 -- -- 97
2020-06-23 05:00:00 13.8 3 Oeste 9 Norte 0 -- -- 97
2020-06-23 04:00:00 13.7 5 Oeste 14 Noroeste 0 -- -- 97
2020-06-23 03:00:00 13.7 3 Noroeste 13 Noroeste 0 -- -- 96
2020-06-23 02:00:00 13.8 3 Noroeste 12 Noroeste 0 -- -- 96
2020-06-23 01:00:00 14.3 3 Norte 8 Oeste 0 -- -- 95
2020-06-23 00:00:00 14.2 3 Noroeste 14 Oeste 0 -- -- 95
2020-06-22 23:00:00 14.4 7 Noroeste 15 Noroeste 0 -- -- 94
2020-06-22 22:00:00 14.4 7 Oeste 14 Noroeste 0 -- -- 92
2020-06-22 21:00:00 15.3 8 Noroeste 13 Noroeste 0 -- -- 91
2020-06-22 20:00:00 18.5 8 Noroeste 15 Noroeste 0 -- -- 78
2020-06-22 19:00:00 20.4 9 Noroeste 14 Norte 0 -- -- 69
2020-06-22 18:00:00 21.4 9 Noroeste 14 Norte 0 -- -- 65
2020-06-22 17:00:00 22.8 10 Norte 17 Norte 0 -- -- 62
2020-06-22 16:00:00 24.4 6 Norte 13 Norte 0 -- -- 57
2020-06-22 15:00:00 23 7 Norte 15 Norte 0 -- -- 61
2020-06-22 14:00:00 22.5 7 Norte 14 Noroeste 0 -- -- 65
2020-06-22 13:00:00 22.4 7 Norte 13 Norte 0 -- -- 63
2020-06-22 12:00:00 22 6 Norte 12 Noroeste 0 -- -- 67
2020-06-22 11:00:00 20.3 5 Norte 9 Norte 0 -- -- 72
2020-06-22 10:00:00 19.9 4 Norte 8 Norte 0 -- -- 76
2020-06-22 09:00:00 15.8 5 Norte 11 Norte 0 -- -- 93
2020-06-22 08:00:00 15.2 5 Norte 9 Nordeste 0 -- -- 95
2020-06-22 07:00:00 12.8 6 Norte 13 Norte 0 -- -- 96
2020-06-22 06:00:00 13.4 2 Noroeste 6 Oeste 0 -- -- 86
2020-06-22 05:00:00 12.7 4 Norte 8 Nordeste 0 -- -- 98
2020-06-22 04:00:00 13.4 5 Norte 10 Nordeste 0 -- -- 98
2020-06-22 03:00:00 13 2 Norte 7 Noroeste 0 -- -- 96
2020-06-22 02:00:00 13.3 3 Oeste 9 Sudeste 0 -- -- 89
2020-06-22 01:00:00 15.1 4 Sudeste 13 Sudeste 0 -- -- 58
2020-06-22 00:00:00 13.1 6 Sudeste 8 Norte 0 -- -- 95
2020-06-21 23:00:00 13.7 4 Norte 8 Norte 0 -- -- 96
2020-06-21 22:00:00 14.2 5 Norte 8 Noroeste 0 -- -- 94
2020-06-21 21:00:00 15.7 4 Noroeste 11 Norte 0 -- -- 90
2020-06-21 20:00:00 17.2 8 Norte 12 Norte 0 -- -- 84
2020-06-21 19:00:00 20.8 5 Noroeste 10 Sudoeste 0 -- -- 71
2020-06-21 18:00:00 22.4 4 Noroeste 13 Norte 0 -- -- 62
2020-06-21 17:00:00 23.4 4 Nordeste 15 Sudeste 0 -- -- 58
2020-06-21 16:00:00 23.4 7 Este 19 Norte 0 -- -- 58
2020-06-21 15:00:00 22.7 5 Nordeste 13 Norte 0 -- -- 64
2020-06-21 14:00:00 22.7 5 Sudeste 16 Sudeste 0 -- -- 65
2020-06-21 13:00:00 22.2 6 Este 18 Este 0 -- -- 62
2020-06-21 12:00:00 21.9 6 Este 18 Este 0 -- -- 64
2020-06-21 11:00:00 18.5 8 Nordeste 19 Nordeste 0 -- -- 77
2020-06-21 10:00:00 15.9 5 Este 10 Este 0 -- -- 89
2020-06-21 09:00:00 14.5 2 Sudeste 11 Sur 0 -- -- 94
2020-06-21 08:00:00 14.1 2 Sudeste 14 Este 0 -- -- 96
2020-06-21 07:00:00 13.6 5 Sur 14 Este 0 -- -- 96
2020-06-21 06:00:00 13.6 5 Este 12 Este 0 -- -- 95
2020-06-21 05:00:00 13.5 5 Este 14 Sudeste 0 -- -- 94
2020-06-21 04:00:00 13.6 6 Este 14 Nordeste 0 -- -- 95
2020-06-21 03:00:00 13.7 3 Nordeste 11 Nordeste 0 -- -- 95
2020-06-21 02:00:00 13.9 2 Sudoeste 14 Norte 0 -- -- 95
2020-06-21 01:00:00 13.9 2 Nordeste 11 Noroeste 0 -- -- 93
2020-06-21 00:00:00 14.3 3 Norte 11 Noroeste 0 -- -- 93
2020-06-20 23:00:00 14.5 5 Norte 15 Sudoeste 0 -- -- 94
2020-06-20 22:00:00 14.6 4 Este 13 Este 0 -- -- 91
2020-06-20 21:00:00 15.2 7 Norte 14 Norte 0 -- -- 91
2020-06-20 20:00:00 16 4 Nordeste 17 Norte 0 -- -- 83
2020-06-20 19:00:00 18.7 10 Norte 21 Norte 0 -- -- 71
2020-06-20 18:00:00 20 10 Norte 23 Norte 0 -- -- 67
2020-06-20 17:00:00 21.4 9 Norte 23 Norte 0 -- -- 64
2020-06-20 16:00:00 21 10 Norte 18 Noroeste 0 -- -- 66
2020-06-20 15:00:00 20.4 8 Norte 23 Noroeste 0 -- -- 69
2020-06-20 14:00:00 20.8 11 Norte 22 Nordeste 0 -- -- 70
2020-06-20 13:00:00 19.8 8 Norte 19 Norte 0 -- -- 67
2020-06-20 12:00:00 17.6 5 Noroeste 13 Norte 0 -- -- 84
2020-06-20 11:00:00 15.8 5 Norte 16 Noroeste 0 -- -- 96
2020-06-20 10:00:00 14.9 5 Norte 13 Norte 0.2 -- -- 96
2020-06-20 09:00:00 14.6 4 Norte 11 Norte 0 -- -- 98
2020-06-20 08:00:00 14.2 5 Norte 12 Nordeste 0.2 -- -- 98
2020-06-20 07:00:00 14.1 5 Este 12 Sudeste 0.4 -- -- 98
2020-06-20 06:00:00 13.6 3 Sur 15 Nordeste 0 -- -- 97
2020-06-20 05:00:00 13.9 6 Este 17 Nordeste 0 -- -- 97
2020-06-20 04:00:00 13.8 7 Sudeste 13 Sudeste 0 -- -- 98
2020-06-20 03:00:00 14 5 Nordeste 14 Nordeste 0 -- -- 97
2020-06-20 02:00:00 14.2 7 Sudeste 14 Este 0.2 -- -- 96
2020-06-20 01:00:00 14 7 Este 22 Este 0 -- -- 95
2020-06-20 00:00:00 14.3 8 Este 18 Este 0 -- -- 96
2020-06-19 23:00:00 14.9 4 Norte 21 Nordeste 0 -- -- 95
2020-06-19 22:00:00 14.7 7 Norte 16 Este 0 -- -- 93
2020-06-19 21:00:00 15.2 4 Nordeste 18 Norte 0 -- -- 90
2020-06-19 20:00:00 16.8 6 Norte 13 Norte 0 -- -- 85
2020-06-19 19:00:00 17.8 3 Nordeste 14 Nordeste 0 -- -- 80
2020-06-19 18:00:00 19 8 Nordeste 18 Norte 0 -- -- 73
2020-06-19 17:00:00 20.4 6 Nordeste 22 Este 0 -- -- 68
2020-06-19 16:00:00 20.5 9 Este 24 Nordeste 0 -- -- 70
2020-06-19 15:00:00 19 7 Nordeste 20 Este 0.2 -- -- 80
2020-06-19 14:00:00 17.8 7 Este 18 Nordeste 0 -- -- 89
2020-06-19 13:00:00 16.3 7 Nordeste 21 Nordeste 0 -- -- 93
2020-06-19 12:00:00 18.6 8 Nordeste 22 Nordeste 0 -- -- 81
2020-06-19 11:00:00 15.6 11 Nordeste 22 Nordeste 0 -- -- 94
2020-06-19 10:00:00 15.3 11 Este 23 Este 0 -- -- 98
2020-06-19 09:00:00 14.5 10 Este 23 Este 0 -- -- 100
2020-06-19 08:00:00 14.1 13 Nordeste 24 Nordeste 0.4 -- -- 99
2020-06-19 07:00:00 14.2 12 Este 26 Nordeste 1 -- -- 99
2020-06-19 06:00:00 14 8 Este 18 Este 0.2 -- -- 99
2020-06-19 05:00:00 14.3 9 Sudeste 17 Este 0 -- -- 98
2020-06-19 04:00:00 14.3 11 Este 24 Este 0.8 -- -- 98
2020-06-19 03:00:00 14.4 9 Sudeste 15 Este 0 -- -- 97
2020-06-19 02:00:00 14.7 6 Sudeste 18 Este 0.2 -- -- 96
2020-06-19 01:00:00 14.6 5 Nordeste 17 Este 0 -- -- 96
2020-06-19 00:00:00 15.1 3 Nordeste 18 Noroeste 0 -- -- 96
2020-06-18 23:00:00 14.9 5 Oeste 14 Noroeste 0 -- -- 94
2020-06-18 22:00:00 14.5 7 Noroeste 17 Oeste 0 -- -- 92
2020-06-18 21:00:00 15.3 9 Noroeste 21 Norte 0 -- -- 91
2020-06-18 20:00:00 17.9 11 Noroeste 19 Noroeste 0 -- -- 74
2020-06-18 19:00:00 18.3 11 Noroeste 21 Noroeste 0 -- -- 79
2020-06-18 18:00:00 20.7 12 Noroeste 21 Noroeste 0 -- -- 67
2020-06-18 17:00:00 20.9 14 Noroeste 27 Noroeste 0 -- -- 67
2020-06-18 16:00:00 19.5 15 Noroeste 28 Noroeste 0 -- -- 77
2020-06-18 15:00:00 20.9 14 Noroeste 28 Noroeste 0 -- -- 71
2020-06-18 14:00:00 21.4 17 Noroeste 30 Noroeste 0 -- -- 69
2020-06-18 13:00:00 19.4 15 Noroeste 25 Noroeste 0 -- -- 70
2020-06-18 12:00:00 18.6 13 Noroeste 24 Noroeste 0 -- -- 77
2020-06-18 11:00:00 16.2 11 Oeste 26 Oeste 0 -- -- 84
2020-06-18 10:00:00 15.3 12 Noroeste 22 Norte 0.2 -- -- 97
2020-06-18 09:00:00 14.7 14 Noroeste 26 Noroeste 0 -- -- 98
2020-06-18 08:00:00 14.4 13 Noroeste 23 Oeste 0 -- -- 98
2020-06-18 07:00:00 14 9 Oeste 21 Oeste 0.2 -- -- 97
2020-06-18 06:00:00 13.4 13 Oeste 23 Oeste 0.2 -- -- 99
2020-06-18 05:00:00 14.7 12 Noroeste 31 Noroeste 0 -- -- 98
2020-06-18 04:00:00 15 12 Noroeste 21 Oeste 0 -- -- 97
2020-06-18 03:00:00 14.6 15 Oeste 23 Oeste 0 -- -- 96
2020-06-18 02:00:00 15.5 11 Noroeste 20 Noroeste 0 -- -- 92
2020-06-18 01:00:00 15.6 11 Noroeste 19 Oeste 0 -- -- 93
2020-06-18 00:00:00 15.6 11 Oeste 18 Noroeste 0 -- -- 97
2020-06-17 23:00:00 16 10 Noroeste 22 Noroeste 0 -- -- 96
2020-06-17 22:00:00 16.1 11 Noroeste 25 Noroeste 0 -- -- 96
2020-06-17 21:00:00 16.6 10 Noroeste 18 Noroeste 0 -- -- 94
2020-06-17 20:00:00 17 12 Noroeste 18 Noroeste 0 -- -- 93
2020-06-17 19:00:00 17.8 10 Noroeste 21 Noroeste 0 -- -- 89
2020-06-17 18:00:00 18.4 9 Norte 19 Norte 0 -- -- 86
2020-06-17 17:00:00 18.5 7 Noroeste 14 Noroeste 0 -- -- 87
2020-06-17 16:00:00 19.7 7 Norte 13 Noroeste 0 -- -- 84
2020-06-17 15:00:00 20.2 9 Noroeste 17 Norte 0 -- -- 83
2020-06-17 14:00:00 23.3 10 Noroeste 24 Noroeste 0 -- -- 68
2020-06-17 13:00:00 23.9 12 Noroeste 20 Noroeste 0 -- -- 63
2020-06-17 12:00:00 22.7 10 Norte 19 Norte 0 -- -- 66
2020-06-17 11:00:00 21.4 9 Noroeste 18 Noroeste 0 -- -- 71
2020-06-17 10:00:00 17.8 13 Noroeste 20 Noroeste 0 -- -- 83
2020-06-17 09:00:00 16.9 9 Noroeste 15 Noroeste 0.2 -- -- 86
2020-06-17 08:00:00 16.2 9 Noroeste 24 Oeste 0 -- -- 89
2020-06-17 07:00:00 18.7 13 Noroeste 23 Noroeste 0 -- -- 71
2020-06-17 06:00:00 17 14 Noroeste 23 Noroeste 0 -- -- 81
2020-06-17 05:00:00 16.9 15 Noroeste 35 Noroeste 0.2 -- -- 82
2020-06-17 04:00:00 18.8 22 Noroeste 37 Oeste 0 -- -- 70
2020-06-17 03:00:00 20 18 Noroeste 30 Oeste 0 -- -- 60
2020-06-17 02:00:00 18.7 22 Oeste 39 Oeste 0 -- -- 67
2020-06-17 01:00:00 19.6 24 Oeste 39 Oeste 0 -- -- 62
2020-06-17 00:00:00 20.6 21 Oeste 34 Oeste 0 -- -- 55
2020-06-16 23:00:00 21.3 24 Oeste 53 Oeste 0 -- -- 50
2020-06-16 22:00:00 21.8 32 Oeste 55 Oeste 0 -- -- 49
2020-06-16 21:00:00 21.5 25 Oeste 42 Oeste 0 -- -- 50
2020-06-16 20:00:00 22.3 21 Oeste 36 Noroeste 0 -- -- 48
2020-06-16 19:00:00 22.9 20 Noroeste 35 Noroeste 0 -- -- 48
2020-06-16 18:00:00 23.4 18 Noroeste 33 Noroeste 0 -- -- 50
2020-06-16 17:00:00 25.4 20 Noroeste 34 Noroeste 0 -- -- 44
2020-06-16 16:00:00 26.4 18 Noroeste 36 Noroeste 0 -- -- 40
2020-06-16 15:00:00 29.6 16 Noroeste 40 Oeste 0 -- -- 36
2020-06-16 14:00:00 29.4 19 Noroeste 39 Oeste 0 -- -- 36
2020-06-16 13:00:00 28.8 18 Noroeste 37 Oeste 0 -- -- 37
2020-06-16 12:00:00 29 16 Noroeste 31 Noroeste 0 -- -- 36
2020-06-16 11:00:00 28.2 10 Noroeste 25 Noroeste 0 -- -- 37
2020-06-16 10:00:00 26.1 9 Noroeste 18 Oeste 0 -- -- 42
2020-06-16 09:00:00 23.9 5 Sudoeste 21 Sudoeste 0 -- -- 43
2020-06-16 08:00:00 22.1 4 Sudoeste 12 Sudeste 0 -- -- 52
2020-06-16 07:00:00 22.1 3 Oeste 10 Oeste 0 -- -- 47
2020-06-16 06:00:00 20.7 9 Oeste 12 Oeste 0 -- -- 48
2020-06-16 05:00:00 21.3 5 Noroeste 8 Sudeste 0 -- -- 45
2020-06-16 04:00:00 18.7 8 Sudeste 11 Este 0 -- -- 62
2020-06-16 03:00:00 19.2 4 Norte 5 Norte 0 -- -- 59
2020-06-16 02:00:00 18.8 4 Oeste 12 Noroeste 0 -- -- 65
2020-06-16 01:00:00 19.1 5 Noroeste 11 Noroeste 0 -- -- 64
2020-06-16 00:00:00 19.3 5 Noroeste 9 Oeste 0 -- -- 62
2020-06-15 23:00:00 18.4 7 Oeste 14 Noroeste 0 -- -- 74
2020-06-15 22:00:00 20.1 5 Oeste 9 Noroeste 0 -- -- 56
2020-06-15 21:00:00 19.6 6 Noroeste 13 Noroeste 0 -- -- 70
2020-06-15 20:00:00 21.2 9 Noroeste 27 Noroeste 0 -- -- 66
2020-06-15 19:00:00 22.1 16 Noroeste 31 Noroeste 0 -- -- 62
2020-06-15 18:00:00 21.6 21 Noroeste 36 Oeste 0 -- -- 63
2020-06-15 17:00:00 24.7 19 Noroeste 35 Noroeste 0 -- -- 53
2020-06-15 16:00:00 25.6 20 Noroeste 35 Noroeste 0 -- -- 50
2020-06-15 15:00:00 26.4 19 Noroeste 42 Noroeste 0 -- -- 48
2020-06-15 14:00:00 26 23 Noroeste 42 Noroeste 0 -- -- 48
2020-06-15 13:00:00 26.3 18 Noroeste 31 Noroeste 0 -- -- 49
2020-06-15 12:00:00 26.3 12 Noroeste 25 Noroeste 0 -- -- 49
2020-06-15 11:00:00 23.4 13 Noroeste 32 Oeste 0 -- -- 56
2020-06-15 10:00:00 22.4 15 Noroeste 25 Noroeste 0 -- -- 59
2020-06-15 09:00:00 20.6 9 Noroeste 24 Norte 0 -- -- 60
2020-06-15 08:00:00 20.9 8 Noroeste 13 Noroeste 0 -- -- 56
2020-06-15 07:00:00 17.4 7 Noroeste 14 Noroeste 0 -- -- 76
2020-06-15 06:00:00 18.3 9 Noroeste 22 Oeste 0 -- -- 70
2020-06-15 05:00:00 20 12 Oeste 26 Noroeste 0 -- -- 55
2020-06-15 04:00:00 20.8 18 Oeste 26 Oeste 0 -- -- 53
2020-06-15 03:00:00 20.7 11 Noroeste 31 Noroeste 0 -- -- 59
2020-06-15 02:00:00 19.2 22 Oeste 37 Oeste 0.8 -- -- 74
2020-06-15 01:00:00 21.4 15 Oeste 28 Oeste 0.2 -- -- 59
2020-06-15 00:00:00 21.8 6 Norte 13 Norte 0 -- -- 52
2020-06-14 23:00:00 20.7 5 Norte 27 Oeste 0.2 -- -- 61
2020-06-14 22:00:00 21.9 13 Oeste 23 Oeste 0 -- -- 58
2020-06-14 21:00:00 21.6 17 Oeste 30 Noroeste 0 -- -- 40
2020-06-14 20:00:00 19.6 7 Oeste 14 Oeste 0 -- -- 59
2020-06-14 19:00:00 19.9 4 Sudoeste 14 Norte 0 -- -- 71
2020-06-14 18:00:00 20.9 5 Noroeste 15 Noroeste 0 -- -- 72
2020-06-14 17:00:00 20.7 9 Noroeste 15 Noroeste 0 -- -- 69
2020-06-14 16:00:00 23.4 6 Noroeste 19 Este 0 -- -- 57
2020-06-14 15:00:00 23.5 14 Este 26 Este 0 -- -- 54
2020-06-14 14:00:00 23.7 13 Este 29 Este 0 -- -- 54
2020-06-14 13:00:00 23 18 Este 30 Este 0 -- -- 52
2020-06-14 12:00:00 21.8 22 Este 35 Sudeste 0 -- -- 57
2020-06-14 11:00:00 21.4 21 Este 32 Sudeste 0 -- -- 52
2020-06-14 10:00:00 19.4 18 Sudeste 28 Este 0 -- -- 61
2020-06-14 09:00:00 16.9 23 Sudeste 28 Sudeste 0 -- -- 65
2020-06-14 08:00:00 15.3 22 Sudeste 29 Sudeste 0 -- -- 60
2020-06-14 07:00:00 14.3 21 Sudeste 28 Sudeste 0 -- -- 62
2020-06-14 06:00:00 13.3 20 Sudeste 23 Sudeste 0 -- -- 62
2020-06-14 05:00:00 12 19 Sudeste 23 Sudeste 0 -- -- 93
2020-06-14 04:00:00 12.8 9 Sudeste 13 Sudeste 0 -- -- 66
2020-06-14 03:00:00 14.1 2 Sur 9 Sudeste 0 -- -- 58
2020-06-14 02:00:00 13.3 2 Este 10 Sudeste 0 -- -- 73
2020-06-14 01:00:00 12.8 12 Sudeste 14 Sudeste 0 -- -- 76
2020-06-14 00:00:00 12.6 7 Sudeste 9 Sudeste 0 -- -- 77
2020-06-13 23:00:00 14.2 2 Noroeste 6 Noroeste 0 -- -- 70
2020-06-13 22:00:00 13.4 4 Sudoeste 6 Noroeste 0 -- -- 89
2020-06-13 21:00:00 14.7 2 Sudeste 10 Noroeste 0 -- -- 75
2020-06-13 20:00:00 17.5 4 Nordeste 12 Este 0 -- -- 68
2020-06-13 19:00:00 17.6 4 Nordeste 15 Nordeste 0 -- -- 75
2020-06-13 18:00:00 18.3 8 Norte 14 Norte 0 -- -- 75
2020-06-13 17:00:00 18.1 4 Nordeste 17 Norte 0 -- -- 75
2020-06-13 16:00:00 20.2 6 Nordeste 17 Norte 0 -- -- 66
2020-06-13 15:00:00 22.6 6 Norte 19 Norte 0 -- -- 57
2020-06-13 14:00:00 20 6 Norte 18 Norte 0 -- -- 66
2020-06-13 13:00:00 22.3 5 Nordeste 21 Sudeste 0 -- -- 58
2020-06-13 12:00:00 20.1 9 Este 21 Este 0 -- -- 65
2020-06-13 11:00:00 18.7 10 Este 17 Este 0 -- -- 67
2020-06-13 10:00:00 19.1 5 Nordeste 14 Este 0 -- -- 63
2020-06-13 09:00:00 15.3 5 Sudeste 14 Este 0 -- -- 78
2020-06-13 08:00:00 12.4 9 Este 15 Este 0 -- -- 98
2020-06-13 07:00:00 11.6 10 Sudeste 14 Sudeste 0 -- -- 97
2020-06-13 06:00:00 12 7 Este 17 Este 0 -- -- 97
2020-06-13 05:00:00 12.6 8 Sudeste 15 Sudeste 0 -- -- 94
2020-06-13 04:00:00 12.5 10 Sudeste 14 Sudeste 0 -- -- 95
2020-06-13 03:00:00 12.5 0 Calma 10 Sudeste 0 -- -- 95
2020-06-13 02:00:00 12.8 3 Norte 12 Nordeste 0 -- -- 95
2020-06-13 01:00:00 12.6 4 Sur 14 Sudeste 0 -- -- 93
2020-06-13 00:00:00 12.4 10 Sudeste 13 Sudeste 0 -- -- 94
2020-06-12 23:00:00 12.9 3 Norte 15 Noroeste 0 -- -- 93
2020-06-12 22:00:00 12.8 6 Norte 15 Noroeste 0 -- -- 91
2020-06-12 21:00:00 13.3 10 Noroeste 17 Noroeste 0 -- -- 86
2020-06-12 20:00:00 14.5 12 Noroeste 19 Noroeste 0 -- -- 80
2020-06-12 19:00:00 16.5 9 Noroeste 18 Noroeste 0 -- -- 69
2020-06-12 18:00:00 17.5 8 Noroeste 16 Noroeste 0 -- -- 68
2020-06-12 17:00:00 19.6 8 Noroeste 19 Noroeste 0 -- -- 59
2020-06-12 16:00:00 19.1 8 Noroeste 23 Norte 0 -- -- 59
2020-06-12 15:00:00 19.4 14 Noroeste 25 Noroeste 0 -- -- 63
2020-06-12 14:00:00 17.2 11 Noroeste 22 Noroeste 0 -- -- 73
2020-06-12 13:00:00 16.2 12 Norte 24 Norte 0 -- -- 81
2020-06-12 12:00:00 19.2 13 Noroeste 25 Norte 0 -- -- 64
2020-06-12 11:00:00 16.1 10 Noroeste 19 Noroeste 0 -- -- 82
2020-06-12 10:00:00 18.2 10 Noroeste 21 Norte 0 -- -- 68
2020-06-12 09:00:00 14 10 Noroeste 19 Noroeste 0 -- -- 93
2020-06-12 08:00:00 12 13 Oeste 19 Oeste 0 -- -- 100
2020-06-12 07:00:00 12.3 10 Noroeste 15 Oeste 0 -- -- 100
2020-06-12 06:00:00 12.3 9 Noroeste 18 Norte 0 -- -- 99
2020-06-12 05:00:00 12.4 10 Noroeste 18 Noroeste 0 -- -- 99
2020-06-12 04:00:00 12.2 7 Noroeste 13 Oeste 0 -- -- 99
2020-06-12 03:00:00 12.7 7 Noroeste 13 Noroeste 0 -- -- 99
2020-06-12 02:00:00 12.7 8 Noroeste 14 Oeste 0 -- -- 98
2020-06-12 01:00:00 12.3 9 Noroeste 13 Noroeste 0 -- -- 95
2020-06-12 00:00:00 12.3 5 Noroeste 14 Oeste 0 -- -- 91
2020-06-11 23:00:00 12.5 9 Noroeste 18 Oeste 0 -- -- 94
2020-06-11 22:00:00 12.9 8 Noroeste 22 Oeste 0 -- -- 96
2020-06-11 21:00:00 13 13 Oeste 18 Oeste 0 -- -- 98
2020-06-11 20:00:00 14 10 Noroeste 15 Norte 0 -- -- 98
2020-06-11 19:00:00 13.9 5 Noroeste 8 Noroeste 0 -- -- 98
2020-06-11 18:00:00 14 3 Norte 10 Norte 0 -- -- 98
2020-06-11 17:00:00 14.4 5 Norte 10 Norte 0 -- -- 98
2020-06-11 16:00:00 14.6 2 Nordeste 10 Noroeste 0 -- -- 98
2020-06-11 15:00:00 14.7 3 Norte 10 Este 0 -- -- 98
2020-06-11 14:00:00 14.5 4 Nordeste 10 Este 0 -- -- 99
2020-06-11 13:00:00 14.5 8 Este 14 Este 0 -- -- 99
2020-06-11 12:00:00 14.3 5 Este 13 Este 0 -- -- 99
2020-06-11 11:00:00 14 7 Este 14 Este 0 -- -- 100
2020-06-11 10:00:00 14 4 Sudeste 9 Este 0.2 -- -- 100
2020-06-11 09:00:00 13.5 4 Este 14 Este 0 -- -- 100
2020-06-11 08:00:00 13.4 6 Este 13 Este 0 -- -- 100
2020-06-11 07:00:00 13.2 8 Sudeste 17 Este 0.2 -- -- 100
2020-06-11 06:00:00 13.3 8 Este 18 Este 0 -- -- 100
2020-06-11 05:00:00 13.4 7 Este 14 Este 0 -- -- 100
2020-06-11 04:00:00 13.3 8 Sudeste 18 Este 0.2 -- -- 99
2020-06-11 03:00:00 13.4 11 Sudeste 22 Este 0 -- -- 99
2020-06-11 02:00:00 13.6 10 Sudeste 18 Sudeste 0 -- -- 99
2020-06-11 01:00:00 13.7 8 Sudeste 14 Sudeste 0 -- -- 99
2020-06-11 00:00:00 13.8 5 Sudeste 9 Este 0 -- -- 98
2020-06-10 23:00:00 13.4 3 Sudeste 7 Nordeste 0 -- -- 98
2020-06-10 22:00:00 13.4 0 Calma 8 Sudeste 0 -- -- 97
2020-06-10 21:00:00 13.5 4 Nordeste 12 Nordeste 0 -- -- 97
2020-06-10 20:00:00 13.9 6 Este 10 Nordeste 0 -- -- 95
2020-06-10 19:00:00 15.1 6 Este 16 Este 0 -- -- 90
2020-06-10 18:00:00 16.1 6 Este 17 Este 0 -- -- 84
2020-06-10 17:00:00 17.1 6 Nordeste 19 Este 0 -- -- 76
2020-06-10 16:00:00 17.6 10 Este 20 Este 0 -- -- 75
2020-06-10 15:00:00 17.1 7 Nordeste 14 Este 0 -- -- 76
2020-06-10 14:00:00 16.4 5 Este 15 Este 0 -- -- 83
2020-06-10 13:00:00 15.4 9 Nordeste 17 Norte 0 -- -- 84
2020-06-10 12:00:00 14.3 9 Nordeste 17 Este 0 -- -- 96
2020-06-10 11:00:00 14.7 4 Este 14 Este 0 -- -- 98
2020-06-10 10:00:00 13.5 5 Nordeste 15 Nordeste 0 -- -- 99
2020-06-10 09:00:00 13.1 8 Este 13 Este 0 -- -- 100
2020-06-10 08:00:00 12.6 6 Este 13 Norte 0 -- -- 100
2020-06-10 07:00:00 12.9 2 Nordeste 12 Norte 0 -- -- 100
2020-06-10 06:00:00 13 5 Nordeste 13 Nordeste 0 -- -- 100
2020-06-10 05:00:00 12.9 6 Norte 15 Norte 0.2 -- -- 100
2020-06-10 04:00:00 13.1 3 Nordeste 12 Nordeste 0 -- -- 100
2020-06-10 03:00:00 13.2 6 Este 14 Este 0.2 -- -- 100
2020-06-10 02:00:00 13.4 9 Este 17 Este 0 -- -- 100
2020-06-10 01:00:00 13.5 10 Este 21 Este 0.2 -- -- 99
2020-06-10 00:00:00 13.8 8 Este 19 Este 0 -- -- 100